New York, NY

5:35 PM EDT on April 19, 2018 (GMT -0400)
La Guardia

Weather History for KLGA - September, 2013

Change the Weather History Date:

Monday, September 16, 2013

  Actual Average Record
Temperature  
Mean Temperature 64 °F 69 °F  
Max Temperature 72 °F 76 °F 95 °F (1991)
Min Temperature 56 °F 62 °F 48 °F (1984)
Degree Days  
Heating Degree Days 1 1  
Month to date heating degree days 5 5  
Since 1 July heating degree days 5 6  
Cooling Degree Days 0 5  
Month to date cooling degree days 119 112  
Year to date cooling degree days 1338 1145  
Growing Degree Days 16 (Base 50)    
Moisture  
Dew Point 52 °F    
Average Humidity 60    
Maximum Humidity 73    
Minimum Humidity 47    
Precipitation  
Precipitation 0.02 in 0.13 in 4.63 in (1999)
Month to date precipitation 2.31 1.93  
Year to date precipitation 29.65 32.18  
Snow  
Snow 0.00 in 0.00 in - ()
Month to date snowfall 0.0 0.0  
Since 1 July snowfall 0.0 0.0  
Snow Depth 0.00 in    
Sea Level Pressure  
Sea Level Pressure 30.09 in    
Wind  
Wind Speed 10 mph (NNW)    
Max Wind Speed 23 mph    
Max Gust Speed 29 mph    
Visibility 10 miles    
Events Rain    
T = Trace of Precipitation, MM = Missing Value Source: NWS Daily Summary

Daily Weather History Graph

Daily Weather History Graph

Search for Another Location

Airport or City:

Astronomy

Sep. 16, 2013 Rise Set
Actual Time 6:37 AM EDT 7:02 PM EDT
Civil Twilight 6:09 AM EDT 7:29 PM EDT
Nautical Twilight 5:37 AM EDT 8:02 PM EDT
Astronomical Twilight 5:04 AM EDT 8:35 PM EDT
Moon 5:10 PM EDT (9/16) 3:19 AM EDT (9/16)
Length of Visible Light 13h 20m
Length of Day
12h 25m
Waxing Gibbous, 90% of the Moon is Illuminated
Sep 16
Waxing Gibbous
Sep 19
Full
Sep 26
Last Quarter
Oct 4
New
Oct 11
First Quarter

Hourly Weather History & Observations

Time (EDT) Temp. Dew Point Humidity Pressure Visibility Wind Dir Wind Speed Gust Speed Precip Events Conditions
12:51 AM 64.9 °F 52.0 °F 63% 30.09 in 10.0 mi SSW 9.2 mph - N/A   Mostly Cloudy
1:51 AM 64.0 °F 53.1 °F 67% 30.07 in 10.0 mi SSW 4.6 mph - N/A   Mostly Cloudy
2:51 AM 64.0 °F 54.0 °F 70% 30.06 in 10.0 mi SSW 6.9 mph - N/A   Scattered Clouds
3:51 AM 63.0 °F 53.1 °F 70% 30.05 in 10.0 mi SSW 5.8 mph - N/A   Scattered Clouds
4:51 AM 64.0 °F 54.0 °F 70% 30.04 in 10.0 mi SSW 4.6 mph - N/A   Scattered Clouds
5:51 AM 64.0 °F 55.0 °F 73% 30.04 in 10.0 mi WSW 10.4 mph - N/A   Mostly Cloudy
6:51 AM 64.9 °F 55.9 °F 73% 30.06 in 10.0 mi West 15.0 mph - 0.00 in Rain Light Rain
7:51 AM 64.9 °F 55.0 °F 70% 30.06 in 10.0 mi WNW 8.1 mph 18.4 mph N/A   Overcast
8:51 AM 63.0 °F 55.9 °F 78% 30.07 in 10.0 mi NW 10.4 mph - 0.02 in Rain Light Rain
9:51 AM 63.0 °F 55.0 °F 75% 30.09 in 10.0 mi North 9.2 mph - 0.00 in   Overcast
10:51 AM 63.0 °F 53.1 °F 70% 30.09 in 10.0 mi NNE 4.6 mph - N/A   Mostly Cloudy
11:51 AM 64.0 °F 51.1 °F 63% 30.08 in 10.0 mi NNW 8.1 mph - 0.00 in Rain Light Rain
12:51 PM 66.9 °F 51.1 °F 57% 30.07 in 10.0 mi North 4.6 mph - 0.00 in   Mostly Cloudy
1:51 PM 69.1 °F 48.0 °F 47% 30.06 in 10.0 mi North 3.5 mph - N/A   Mostly Cloudy
2:51 PM 71.1 °F 50.0 °F 47% 30.06 in 10.0 mi North 10.4 mph 18.4 mph N/A   Mostly Cloudy
3:51 PM 69.1 °F 48.9 °F 49% 30.06 in 10.0 mi North 11.5 mph 18.4 mph N/A   Mostly Cloudy
4:51 PM 69.1 °F 48.9 °F 49% 30.07 in 10.0 mi NNW 12.7 mph - N/A   Overcast
5:51 PM 69.1 °F 50.0 °F 51% 30.08 in 10.0 mi North 10.4 mph - N/A   Overcast
6:51 PM 66.9 °F 51.1 °F 57% 30.10 in 10.0 mi North 8.1 mph - N/A   Mostly Cloudy
7:51 PM 66.9 °F 48.9 °F 52% 30.12 in 10.0 mi North 9.2 mph - N/A   Overcast
8:51 PM 66.0 °F 51.1 °F 59% 30.15 in 10.0 mi NNW 11.5 mph - N/A   Mostly Cloudy
9:51 PM 64.9 °F 51.1 °F 61% 30.18 in 10.0 mi NNW 16.1 mph 19.6 mph N/A   Scattered Clouds
10:51 PM 61.0 °F 48.9 °F 64% 30.22 in 10.0 mi North 18.4 mph 24.2 mph N/A   Scattered Clouds
11:51 PM 59.0 °F 46.0 °F 62% 30.24 in 10.0 mi North 18.4 mph 26.5 mph N/A   Scattered Clouds